Old front page

pwweb_top

Entries for the 2017 Manx Telecom Parish Walk (starts at 8 am on Saturday 24 June) open at midnight on 1 December 

Buy photos of 2016 walk (proceeds to charity)

WATCH VIDEOS OF RACE

Select from list top left

See more videos at manx.net

Manx Telecom Parish Walk results

PDF results:

Full 

Team

Juniors

Corporate

Team ladies

Updated statistics

All finishers by:

Time 

Women

Name

Year

All performances since 1974

More  statistics at the Parish Walk blog

Richard

Richard Gerrard winning the Manx Telecom Parish Walk for the 4th time
KC  
Karen Chiarello was just 89 seconds outside the record
2016 results analysis

155 finishers; 98 men and 57 women
66 first finishers; 89 previous finishers (37 personal bests)

Pos. No. Name Time Previous best Improve Finishes
1st 1 Richard Gerrard 15:31:43 14:40:08 9
2nd 4 David Walker 15:56:10 15:39:16 6
3rd 11 Karen Chiarello 16:00:03 17:01:31 01:01:28 3
4th 7 Liam Parker 16:16:13 16:34:44 00:18:31 5
5th 3 Jock Waddington 16:48:48 15:01:48 10
6th 5 Terry Moffat 16:57:47 16:03:41 10
7th= 14 Stephen Corkill 17:00:05 16:59:35 6
7th= 48 Noel Ash 17:00:05 18:38:32 01:38:27 5
9th 12 Brian Kelly 17:08:21 16:56:27 5
10th 26 Emma Shilling 17:16:15 18:23:14 01:06:59 6
11th 17 Adam Killip 17:30:40 17:41:22 00:10:42 5
12th 10 Andrew Dawson 17:36:36 16:52:55 4
13th 15 Robert Currey 17:44:36 17:26:31 3
14th 46 Stewart Jones 17:49:35 18:36:28 00:46:53 5
15th 636 James Quirk 17:56:30 First finish 1
16th 57 Juan Readshaw 17:58:06 19:13:14 01:15:08 6
17th 104 Richard Leigh 18:12:54 20:37:15 02:24:21 2
18th 36 Jane Mooney 18:18:15 17:26:36 4
19th= 136 Lee Johnson 18:26:12 21:48:35 03:22:23 2
19th= 81 Bernie Johnson 18:26:12 20:04:40 01:38:28 5
21st= 27 Karen Lawrie 18:30:16 17:53:10 6
21st= 28 Tony Mackintosh 18:30:16 17:53:10 4
23rd 68 Kathryn Clough 18:38:23 19:36:19 00:57:56 4
24th 102 Jayne Farquhar 18:39:53 20:35:38 01:55:45 4
25th 617 Derek Moultrie 18:43:50 First finish 1
26th= 19 Stephanie Quayle 18:53:28 18:05:08 5
26th= 16 Chris Cale 18:53:28 16:43:22 14
28th 18 Andrew Titley 18:55:02 16:50:51 15
29th 71 Louise Duncan 18:55:23 19:44:53 00:49:30 3
30th 185 Gabriel Farmer 19:00:37 22:57:34 03:56:57 3
31st 60 Ewa Kowalewska 19:08:20 19:22:18 00:13:58 3
32nd 37 Alison Brand 19:08:30 17:31:18 3
33rd 105 Tony Edwards 19:09:35 20:40:52 01:31:17 2
34th 25 John Shimmin 19:23:59 17:21:37 8
35th 75 Ben O’Hare 19:35:45 19:50:36 00:14:51 4
36th= 22 Kersten Mosig 19:39:31 18:09:31 4
36th= 96 Johannes Graaff Lotz 19:39:31 20:28:34 00:49:03 2
38th 51 Andrew Corris 20:04:50 18:49:47 6
39th 29 Alan Teare 20:11:52 18:51:29 8
40th 82 Stephen Brew 20:15:29 20:08:12 8
41st 615 Paul Moran 20:24:46 First finish 1
42nd= 123 Meggie Thomas 20:27:33 21:14:00 00:46:27 3
42nd= 85 Louise Thomas 20:27:33 20:12:21 8
42nd= 80 Hattie Thomas 20:27:33 19:58:46 3
45th 24 Craig Riley 20:37:57 18:34:02 3
46th 114 Gareth Brolly 20:41:50 20:53:44 00:11:54 7
47th 261 James Clucas 20:43:26 First finish 1
48th 93 Ned Bowers 20:47:38 20:24:58 5
49th 154 John Struthers 20:49:51 22:17:56 01:28:05 2
50th 256 Bandile Cima 20:53:06 First finish 1
51st= 300 Kevin Edwards 20:53:27 First finish 1
51st= 142 Christa McKay 20:53:27 21:55:15 01:01:48 3
53rd 84 Frank Feeney 20:54:25 20:09:27 9
54th= 62 James Bassett 20:56:14 19:26:05 2
54th= 222 Jonathan Barton 20:56:14 First finish 1
56th 64 Russell Walker 21:04:49 19:29:31 5
57th 149 Ed Burn 21:08:47 22:09:38 01:00:51 6
58th 182 Emmsie Lou Buckley 21:09:10 22:55:02 01:45:52 2
59th 669 Anton Christiaan Truter 21:11:51 First finish 1
60th 1042 Alison Crellin-Dodd 21:14:21 First finish 1
61st 129 Greg Nation 21:17:11 21:31:25 00:14:14 8
62nd= 109 Kenny Valerga 21:17:40 20:46:29 3
62nd= 127 Barbara Kniveton 21:17:40 21:28:51 00:11:11 2
64th= 9 Robbie Callister 21:19:26 15:16:03 15
64th= 33 Rosemarie Crellin 21:19:26 17:12:19 11
66th 254 Jason Chatwood 21:20:39 First finish 1
67th 165 Robin Crellin 21:21:34 22:31:44 01:10:10 2
68th 121 Wang Xin Christian 21:22:43 21:07:25 2
69th 1101 Bernadette Haywood 21:23:36 First finish 1
70th 549 David Gomberg 21:26:24 First finish 1
71st 295 James Dernie 21:29:42 First finish 1
72nd 39 David Cain 21:35:46 17:39:13 7
73rd 356 Shaun Kelly 21:40:09 First finish 1
74th= 141 Nick Coole 21:41:43 21:52:40 00:10:57 2
74th= 140 Ciaran Broad 21:41:43 21:52:40 00:10:57 2
76th 1077 Rowena Finch 21:42:47 First finish 1
77th 131 Claire Jackson 21:53:50 21:32:22 5
78th 99 Stephanie Gray 21:54:01 20:34:48 10
79th 177 Anee Du Toit 21:55:06 22:51:25 00:56:19 2
80th 117 Emma Walker 21:55:38 22:00:50 00:05:12 2
81st 942 Viv Avery 21:56:35 First finish 1
82nd 578 Antony Kelsey 21:56:42 First finish 1
83rd= 405 Steven Parker 22:03:19 First finish 1
83rd= 857 Suzy Parker 22:03:19 First finish 1
85th= 732 Kate Cowley 22:06:14 First finish 1
85th= 150 Nicola Raven 22:06:14 22:11:55 00:05:41 3
87th 815 Sarah Leece 22:08:12 First finish 1
88th 108 Julia Kiefer 22:11:48 20:45:01 3
89th 440 Dave Sutcliffe 22:13:42 First finish 1
90th 1106 May Hooper 22:14:50 First finish 1
91st 171 Allan Lund 22:16:30 22:43:30 00:27:00 2
92nd= 31 Eammon Harkin 22:17:51 16:31:48 8
92nd= 38 David Doyle 22:17:51 17:35:17 4
94th 260 Chris Clinton 22:21:34 First finish 1
95th 285 Michael Crosbie 22:21:50 First finish 1
96th 402 Michael Osborne 22:22:20 First finish 1
97th 296 Mark Dodgson 22:22:40 First finish 1
98th= 782 Jessica Hatton 22:24:13 First finish 1
98th= 842 Rebecca Moffatt 22:24:13 First finish 1
98th= 112 June Melvin 22:24:13 20:50:31 7
98th= 20 Maureen Moffatt 22:24:13 17:31:21 11
102nd 642 Garry Reynolds 22:27:51 First finish 1
103rd 234 Timothy Brown 22:32:52 First finish 1
104th= 101 Anne Dooley 22:39:11 20:35:38 5
104th= 43 Lon Chambers 22:39:11 18:13:33 8
106th 1128 Janna Kelly 22:41:36 First finish 1
107th= 173 Louise Hollings 22:43:02 22:45:31 00:02:29 2
107th= 978 Sharon E Cain 22:43:02 First finish 1
109th 728 Ruth Corlett 22:45:27 First finish 1
110th 1227 Angie Robinson 22:46:43 First finish 1
111th= 332 Nicholas Hardacre 22:51:45 First finish 1
111th= 120 Brian Skillicorn 22:51:45 21:04:49 3
113th 258 Paul Clark 22:52:49 First finish 1
114th 77 Courtenay Heading 22:58:47 19:55:55 5
115th 695 Cara Bloem 22:59:34 First finish 1
116th 122 Michael Crook 23:02:36 21:13:36 9
117th 623 Trevor Newton 23:05:24 First finish 1
118th= 268 John Cooper 23:08:55 First finish 1
118th= 209 Gary Scott 23:08:55 23:46:05 00:37:10 2
120th= 194 Emily Knight 23:11:20 23:16:13 00:04:53 2
120th= 820 Gail Logan 23:11:20 First finish 1
122nd 246 Liam Cannan 23:12:17 First finish 1
123rd 163 Roger Davies 23:13:24 22:30:36 4
124th= 189 Clifford Thomas 23:16:07 23:10:20 2
124th= 598 Brian Mc Guinness 23:16:07 First finish 1
126th 281 Alex Crawley 23:16:47 First finish 1
127th 1104 Charlotte Hemensley 23:17:47 First finish 1
128th= 1028 Laura Corlett 23:18:12 First finish 1
128th= 191 Kim Lamb 23:18:12 23:11:30 4
130th 1184 Alena Neuwirt 23:20:17 First finish 1
131st 629 Alex Parkes 23:21:48 First finish 1
132nd 672 Bill Vaughan 23:22:21 First finish 1
133rd 270 Lee Corkill 23:22:37 First finish 1
134th 826 Zoe Mason 23:23:48 First finish 1
135th= 210 Kate Mc Dade 23:24:54 23:49:55 00:25:01 2
135th= 428 Sam Saunders 23:24:54 First finish 1
137th= 1095 Emma Hall 23:26:08 First finish 1
137th= 511 Colin Crennell 23:26:08 First finish 1
139th= 186 Daniel Roberts 23:27:20 22:59:02 2
139th= 193 Anton Killeen 23:27:20 23:15:32 2
141st 1007 Pauline Clague 23:29:15 First finish 1
142nd= 1277 Melanie Hester Viviers 23:32:00 First finish 1
142nd= 413 Nceba Qinisile 23:32:00 First finish 1
144th 162 Adam Cubbon 23:32:48 22:28:20 3
145th 1170 Hannah Miller 23:33:25 First finish 1
146th= 304 Ste Ennett 23:34:15 First finish 1
146th= 707 Jennifer Cannell 23:34:15 First finish 1
148th= 302 Mark Edwards 23:45:21 First finish 1
148th= 1263 Silviya Tateva 23:45:21 First finish 1
150th 423 Joe Rotchell 23:48:25 First finish 1
151st 196 Garry Asling 23:48:55 23:22:51 5
152nd 353 Daniel Johnson 23:50:26 First finish 1
153rd= 208 Stephen Cletheroe 23:51:51 23:33:08 2
153rd= 472 Steve Bassil 23:51:51 First finish 1
155th 1218 Maureen Rathbone 23:54:03 First finish 1

Website including statistics published by Murray Lambden

Front page content added after 2016 event; all other pages pre-race; site will be re-designed by 1 December

Manx Telecom Parish Walk Facebook Posts

1 day ago

Parish Walk

Entries opened 10 days ago and we have 100 entries.
Why not enter a friend/colleague/spouse for Christmas?
Just saying... 🎄
... See MoreSee Less

Comment on Facebook

Emmsie Lou half of me is thinking hhhhmmmmmmmmm good training for lakeland lol x not the whole distance but a good chunk

Is there an option for doing it in reverse so we can come down the Sloc?

What do you think Francesca are you doing it again?

Jamie get in there lad!

Nikki Salmon are we doing it again xx

Pete Hartley consider yourself entered!! 😂😂😂

Clifford Thomas, Anne Dooley, I've already entered, do you fancy us all walking around again? X

Nicola Howard. Have you entered yet Nic?

Lol.... just what we were discussing today!Sharon Blackley I will when you and Jessica-Fay Kitchin does! X

Karen Warburton I said never again but you did Peel in five hours once...

Ryan Maddox you in yet? Will be sorting myself soon!

Do you think I can beat your time? 😂 Steven Downward

Still pondering? 🙄

That was me 😊

Iain Kerr fancy round 2?

Ann Marie Larrosa Fiona Foody are we doing this to Peel next year xx

Kimberley Moughtin you should do it! Me and Rachel Corlett will support you! 😘

Victoria Westwood shall we have a go

Pips Tee, peel? 😉

Ashleigh Oldland Linda Kermeen yous doing it next year? X

Sharon Blackley you signed up yet?

Gina Grose 😀

Susanne Bumfrey & Sarah Adams 👍🏼

Rhonda Hegarty??

Rachel Palmer Fiona Clark Teare xx

+ View previous comments

2 weeks ago

Parish Walk

The new Parish Walk web site has just gone live.
Same web address, new look.
Entries open in less than 3 hours!
... See MoreSee Less

Comment on Facebook

Love the new site. Looks great on mobile.

Nicole Mercer we should do it for a laugh to get fit 😂😂😂

Craig Cooper you doing it again?

Janet Sayle hey sighed up x

Ali Gill Aoife Belle Helen Elisabeth Vale @charlotte vale xx

Catherine Hurst 😬

Lynn Ryan

+ View previous comments

2 weeks ago

Parish Walk

LOST PROPERTY: there are a number of items still unclaimed from the 2017 Parish Walk so if you are missing any items please advise so we can reunited you 👍 ... See MoreSee Less

Comment on Facebook

I lost a small rear light which was pinned to my back. I think I lost it at the end when I collapsed on one of the chairs. 😄

Load more